Location: Newark
(39.4242°N, 80.8531°W)
Time: 11:55:03
(UTC+00:00)

PCSat - Visible Passes

Search period start: 04 April 2020 00:00
Search period end: 14 April 2020 00:00
Orbit: 785 x 794 km, 67.1° (Epoch: 03 April)

Date Brightness Start Highest point End Pass type
(mag) Time Alt. Az. Time Alt. Az. Time Alt. Az.
04 Apr 10.6 00:19:48 10° N 00:24:29 28° NE 00:29:08 10° ESE visible
04 Apr 10.6 02:02:54 10° NW 02:07:58 41° WSW 02:09:54 30° SSW visible
05 Apr 10.0 01:31:45 10° NW 01:37:04 58° WSW 01:40:24 22° S visible
06 Apr 9.6 01:00:41 10° NNW 01:06:07 81° WSW 01:11:00 13° SSE visible
07 Apr 9.6 00:29:41 10° NNW 00:35:08 74° ENE 00:40:32 10° SE visible
07 Apr 12.1 02:15:08 10° WNW 02:17:49 14° WSW 02:20:30 10° SW visible
08 Apr 11.9 01:43:11 10° WNW 01:47:02 20° WSW 01:50:52 10° SSW visible
09 Apr 11.4 01:11:39 10° NW 01:16:13 28° WSW 01:20:45 10° SSW visible
10 Apr 10.9 00:40:20 10° NW 00:45:21 39° WSW 00:50:20 10° S visible
13 Apr 12.4 00:52:43 10° WNW 00:55:11 13° WSW 00:57:39 10° SW visible
